Location: Owl River
(54.8872°N, 111.8867°W)
Time: 15:10:56
(UTC+00:00)

BlueWalker 3 - Pass Details

Date: 26 April 2024
Orbit: 481 x 494 km, 53.2° (Epoch: 26 May)

Event Time Altitude Azimuth Distance (km) Brightness Sun altitude
Rises 04:52:38 0° 275° (W) 2,578 6.2 -14.2°
Reaches altitude 10° 04:54:49 10° 272° (W) 1,696 5.2 -14.4°
Maximum altitude 04:58:36 61° 192° (SSW) 570 1.9 -14.8°
Enters shadow 05:00:29 27° 121° (ESE) 979 2.9 -14.9°
